Weather History for KCUT - November, 2012

Change the Weather History Date:

Wednesday, November 21, 2012

  Actual Average Record
Temperature  
Mean Temperature 48 °F 29 °F  
Max Temperature 55 °F 39 °F 65 °F (1987)
Min Temperature 40 °F 19 °F -15 °F (1985)
Degree Days  
Heating Degree Days 17 36  
Month to date heating degree days 578 660  
Since 1 July heating degree days 1598 1839  
Cooling Degree Days 0 0  
Month to date cooling degree days 0 0  
Year to date cooling degree days 390 177  
Moisture  
Dew Point 22 °F    
Average Humidity 34    
Maximum Humidity 43    
Minimum Humidity 24    
Precipitation  
Precipitation 0.00 in 0.02 in 0.35 in (1979)
Month to date precipitation 0.29 0.46  
Year to date precipitation 11.86 18.42  
Sea Level Pressure  
Sea Level Pressure 29.76 in    
Wind  
Wind Speed 11 mph (WSW)    
Max Wind Speed 25 mph    
Max Gust Speed 39 mph    
Visibility 10 miles    
Events      
T = Trace of Precipitation, MM = Missing Value Source: NWS Daily Summary

Daily Weather History Graph

Daily Weather History Graph

Search for Another Location

Airport or City:

Trip Planner

Search our weather history database for the weather conditions in past years. The results will help you decide how hot, cold, wet, or windy it might be!

Date:

Astronomy

Nov. 21, 2012 Rise Set
Actual Time 6:57 AM MST 4:23 PM MST
Civil Twilight 6:25 AM MST 4:55 PM MST
Nautical Twilight 5:50 AM MST 5:30 PM MST
Astronomical Twilight 5:16 AM MST 6:04 PM MST
Moon 12:51 PM MST (11/21) 12:06 AM MST (11/21)
Length of Visible Light 10h 29m
Length of Day
9h 26m
Waxing Gibbous, 62% of the Moon is Illuminated
Nov 21
Waxing Gibbous
Nov 28
Full
Dec 6
Last Quarter
Dec 13
New
Dec 19
First Quarter

Hourly Weather History & Observations

Time (MST) Temp. Windchill Dew Point Humidity Pressure Visibility Wind Dir Wind Speed Gust Speed Precip Events Conditions
12:53 AM 46.0 °F 41.9 °F 24.1 °F 42% 29.91 in 10.0 mi West 8.1 mph - N/A   Clear
1:53 AM 45.0 °F 41.2 °F 23.0 °F 42% 29.91 in 10.0 mi West 6.9 mph - N/A   Clear
2:53 AM 46.0 °F 42.5 °F 23.0 °F 40% 29.88 in 10.0 mi WSW 6.9 mph - N/A   Clear
3:53 AM 44.1 °F 39.5 °F 23.0 °F 43% 29.89 in 10.0 mi West 8.1 mph - N/A   Clear
4:53 AM 44.1 °F 41.5 °F 23.0 °F 43% 29.89 in 10.0 mi West 4.6 mph - N/A   Clear
5:53 AM 43.0 °F 38.8 °F 21.9 °F 43% 29.89 in 10.0 mi West 6.9 mph - N/A   Clear
6:53 AM 42.1 °F 37.7 °F 21.9 °F 45% 29.86 in 10.0 mi WSW 6.9 mph - N/A   Clear
7:53 AM 44.1 °F 40.1 °F 23.0 °F 43% 29.85 in 10.0 mi West 6.9 mph - N/A   Clear
8:53 AM 48.9 °F - 23.0 °F 36% 29.81 in 10.0 mi West 6.9 mph - N/A   Clear
9:53 AM 52.0 °F - 23.0 °F 32% 29.78 in 10.0 mi Variable 5.8 mph 18.4 mph N/A   Clear
10:53 AM 52.0 °F - 23.0 °F 32% 29.75 in 10.0 mi WSW 8.1 mph - N/A   Clear
11:53 AM 52.0 °F - 21.9 °F 31% 29.70 in 10.0 mi WSW 11.5 mph 27.6 mph N/A   Clear
12:53 PM 52.0 °F - 21.0 °F 30% 29.69 in 10.0 mi WSW 17.3 mph 29.9 mph N/A   Clear
1:53 PM 52.0 °F - 21.0 °F 30% 29.67 in 10.0 mi WSW 13.8 mph 24.2 mph N/A   Clear
2:53 PM 54.0 °F - 19.9 °F 26% 29.64 in 10.0 mi WSW 11.5 mph 29.9 mph N/A   Clear
3:53 PM 55.0 °F - 19.9 °F 25% 29.65 in 10.0 mi WSW 16.1 mph 32.2 mph N/A   Clear
4:53 PM 54.0 °F - 19.9 °F 26% 29.65 in 10.0 mi WSW 17.3 mph 34.5 mph N/A   Clear
5:53 PM 54.0 °F - 21.0 °F 28% 29.65 in 10.0 mi WSW 20.7 mph 39.1 mph N/A   Clear
6:53 PM 53.1 °F - 19.9 °F 27% 29.66 in 10.0 mi WSW 19.6 mph 34.5 mph N/A   Clear
7:53 PM 51.1 °F - 21.0 °F 31% 29.68 in 10.0 mi WSW 19.6 mph 34.5 mph N/A   Clear
8:53 PM 50.0 °F - 21.9 °F 33% 29.68 in 10.0 mi West 17.3 mph 33.4 mph N/A   Clear
9:53 PM 48.0 °F - 21.9 °F 36% 29.69 in 10.0 mi West 12.7 mph 27.6 mph N/A   Clear
10:53 PM 46.0 °F 43.1 °F 21.9 °F 39% 29.71 in 10.0 mi West 5.8 mph - N/A   Clear
11:53 PM 41.0 °F - 21.9 °F 47% 29.74 in 10.0 mi Calm Calm - N/A   Clear